#datetime,building,power
2022-05-18T00:00:00,mfh,37.99
2022-05-18T00:01:00,mfh,38.10
2022-05-18T00:02:00,mfh,38.18
2022-05-18T00:03:00,mfh,38.09
2022-05-18T00:04:00,mfh,38.66
2022-05-18T00:05:00,mfh,38.80
2022-05-18T00:06:00,mfh,38.80
2022-05-18T00:07:00,mfh,38.50
2022-05-18T00:08:00,mfh,38.04
2022-05-18T00:09:00,mfh,38.74
2022-05-18T00:10:00,mfh,39.32
2022-05-18T00:11:00,mfh,38.64
2022-05-18T00:12:00,mfh,39.22
2022-05-18T00:13:00,mfh,39.27
2022-05-18T00:14:00,mfh,38.53
2022-05-18T00:15:00,mfh,38.47
2022-05-18T00:16:00,mfh,37.71
2022-05-18T00:17:00,mfh,38.02
2022-05-18T00:18:00,mfh,37.72
2022-05-18T00:19:00,mfh,37.70
2022-05-18T00:20:00,mfh,37.61
2022-05-18T00:21:00,mfh,38.23
2022-05-18T00:22:00,mfh,38.35
2022-05-18T00:23:00,mfh,38.37
2022-05-18T00:24:00,mfh,38.28
2022-05-18T00:25:00,mfh,37.61
2022-05-18T00:26:00,mfh,37.62
2022-05-18T00:27:00,mfh,37.83
2022-05-18T00:28:00,mfh,37.61
2022-05-18T00:29:00,mfh,38.33
2022-05-18T00:30:00,mfh,38.31
2022-05-18T00:31:00,mfh,38.29
2022-05-18T00:32:00,mfh,38.79
2022-05-18T00:33:00,mfh,37.88
2022-05-18T00:34:00,mfh,37.81
2022-05-18T00:35:00,mfh,37.79
2022-05-18T00:36:00,mfh,38.37
2022-05-18T00:37:00,mfh,37.88
2022-05-18T00:38:00,mfh,38.52
2022-05-18T00:39:00,mfh,38.52
2022-05-18T00:40:00,mfh,38.55
2022-05-18T00:41:00,mfh,37.73
2022-05-18T00:42:00,mfh,37.81
2022-05-18T00:43:00,mfh,37.80
2022-05-18T00:44:00,mfh,37.79
2022-05-18T00:45:00,mfh,37.99
2022-05-18T00:46:00,mfh,38.61
2022-05-18T00:47:00,mfh,38.57
2022-05-18T00:48:00,mfh,38.63
2022-05-18T00:49:00,mfh,38.52
2022-05-18T00:50:00,mfh,37.85
2022-05-18T00:51:00,mfh,38.55
2022-05-18T00:52:00,mfh,38.62
2022-05-18T00:53:00,mfh,38.83
2022-05-18T00:54:00,mfh,38.79
2022-05-18T00:55:00,mfh,39.33
2022-05-18T00:56:00,mfh,38.62
2022-05-18T00:57:00,mfh,38.55
2022-05-18T00:58:00,mfh,37.89
2022-05-18T00:59:00,mfh,37.67
2022-05-18T01:00:00,mfh,37.67
2022-05-18T01:01:00,mfh,37.98
2022-05-18T01:02:00,mfh,37.73
2022-05-18T01:03:00,mfh,38.36
2022-05-18T01:04:00,mfh,38.34
2022-05-18T01:05:00,mfh,39.44
2022-05-18T01:06:00,mfh,38.25
2022-05-18T01:07:00,mfh,37.57
2022-05-18T01:08:00,mfh,37.67
2022-05-18T01:09:00,mfh,37.66
2022-05-18T01:10:00,mfh,37.65
2022-05-18T01:11:00,mfh,38.32
2022-05-18T01:12:00,mfh,38.30
2022-05-18T01:13:00,mfh,38.35
2022-05-18T01:14:00,mfh,38.33
2022-05-18T01:15:00,mfh,37.55
2022-05-18T01:16:00,mfh,37.80
2022-05-18T01:17:00,mfh,37.81
2022-05-18T01:18:00,mfh,37.69
2022-05-18T01:19:00,mfh,38.21
2022-05-18T01:20:00,mfh,38.52
2022-05-18T01:21:00,mfh,38.23
2022-05-18T01:22:00,mfh,38.25
2022-05-18T01:23:00,mfh,37.65
2022-05-18T01:24:00,mfh,38.46
2022-05-18T01:25:00,mfh,39.13
2022-05-18T01:26:00,mfh,39.91
2022-05-18T01:27:00,mfh,41.07
2022-05-18T01:28:00,mfh,41.37
2022-05-18T01:29:00,mfh,41.49
2022-05-18T01:30:00,mfh,41.28
2022-05-18T01:31:00,mfh,40.64
2022-05-18T01:32:00,mfh,40.64
2022-05-18T01:33:00,mfh,40.65
2022-05-18T01:34:00,mfh,41.38
2022-05-18T01:35:00,mfh,42.05
2022-05-18T01:36:00,mfh,42.04
2022-05-18T01:37:00,mfh,42.11
2022-05-18T01:38:00,mfh,42.08
2022-05-18T01:39:00,mfh,40.49
2022-05-18T01:40:00,mfh,40.69
2022-05-18T01:41:00,mfh,40.59
2022-05-18T01:42:00,mfh,40.59
2022-05-18T01:43:00,mfh,41.18
2022-05-18T01:44:00,mfh,41.41
2022-05-18T01:45:00,mfh,41.40
2022-05-18T01:46:00,mfh,42.87
2022-05-18T01:47:00,mfh,41.59
2022-05-18T01:48:00,mfh,41.34
2022-05-18T01:49:00,mfh,40.79
2022-05-18T01:50:00,mfh,41.25
2022-05-18T01:51:00,mfh,40.75
2022-05-18T01:52:00,mfh,40.79
2022-05-18T01:53:00,mfh,41.46
2022-05-18T01:54:00,mfh,41.74
2022-05-18T01:55:00,mfh,41.75
2022-05-18T01:56:00,mfh,41.10
2022-05-18T01:57:00,mfh,40.96
2022-05-18T01:58:00,mfh,41.02
2022-05-18T01:59:00,mfh,41.18
2022-05-18T02:00:00,mfh,41.01
2022-05-18T02:01:00,mfh,41.42
2022-05-18T02:02:00,mfh,41.60
2022-05-18T02:03:00,mfh,41.60
2022-05-18T02:04:00,mfh,41.70
2022-05-18T02:05:00,mfh,40.98
2022-05-18T02:06:00,mfh,40.94
2022-05-18T02:07:00,mfh,41.09
2022-05-18T02:08:00,mfh,41.40
2022-05-18T02:09:00,mfh,41.66
2022-05-18T02:10:00,mfh,41.71
2022-05-18T02:11:00,mfh,41.88
2022-05-18T02:12:00,mfh,41.74
2022-05-18T02:13:00,mfh,41.15
2022-05-18T02:14:00,mfh,41.21
2022-05-18T02:15:00,mfh,41.21
2022-05-18T02:16:00,mfh,41.93
2022-05-18T02:17:00,mfh,42.65
2022-05-18T02:18:00,mfh,42.73
2022-05-18T02:19:00,mfh,42.99
2022-05-18T02:20:00,mfh,41.87
2022-05-18T02:21:00,mfh,41.21
2022-05-18T02:22:00,mfh,41.21
2022-05-18T02:23:00,mfh,40.74
2022-05-18T02:24:00,mfh,40.62
2022-05-18T02:25:00,mfh,40.16
2022-05-18T02:26:00,mfh,39.73
2022-05-18T02:27:00,mfh,39.70
2022-05-18T02:28:00,mfh,39.47
2022-05-18T02:29:00,mfh,31.12
2022-05-18T02:30:00,mfh,30.65
2022-05-18T02:31:00,mfh,29.74
2022-05-18T02:32:00,mfh,30.88
2022-05-18T02:33:00,mfh,29.88
2022-05-18T02:34:00,mfh,30.44
2022-05-18T02:35:00,mfh,30.51
2022-05-18T02:36:00,mfh,31.47
2022-05-18T02:37:00,mfh,30.43
2022-05-18T02:38:00,mfh,29.65
2022-05-18T02:39:00,mfh,29.64
2022-05-18T02:40:00,mfh,29.75
2022-05-18T02:41:00,mfh,29.57
2022-05-18T02:42:00,mfh,30.20
2022-05-18T02:43:00,mfh,30.29
2022-05-18T02:44:00,mfh,30.27
2022-05-18T02:45:00,mfh,30.97
2022-05-18T02:46:00,mfh,29.69
2022-05-18T02:47:00,mfh,29.65
2022-05-18T02:48:00,mfh,29.82
2022-05-18T02:49:00,mfh,29.80
2022-05-18T02:50:00,mfh,30.47
2022-05-18T02:51:00,mfh,30.49
2022-05-18T02:52:00,mfh,30.48
2022-05-18T02:53:00,mfh,30.58
2022-05-18T02:54:00,mfh,29.86
2022-05-18T02:55:00,mfh,29.82
2022-05-18T02:56:00,mfh,29.90
2022-05-18T02:57:00,mfh,29.90
2022-05-18T02:58:00,mfh,31.32
2022-05-18T02:59:00,mfh,31.28
2022-05-18T03:00:00,mfh,31.30
2022-05-18T03:01:00,mfh,31.12
2022-05-18T03:02:00,mfh,29.64
2022-05-18T03:03:00,mfh,29.63
2022-05-18T03:04:00,mfh,29.62
2022-05-18T03:05:00,mfh,29.61
2022-05-18T03:06:00,mfh,29.59
2022-05-18T03:07:00,mfh,30.44
2022-05-18T03:08:00,mfh,30.49
2022-05-18T03:09:00,mfh,30.52
2022-05-18T03:10:00,mfh,30.33
2022-05-18T03:11:00,mfh,30.47
2022-05-18T03:12:00,mfh,29.84
2022-05-18T03:13:00,mfh,29.61
2022-05-18T03:14:00,mfh,29.58
2022-05-18T03:15:00,mfh,30.19
2022-05-18T03:16:00,mfh,30.29
2022-05-18T03:17:00,mfh,30.45
2022-05-18T03:18:00,mfh,30.59
2022-05-18T03:19:00,mfh,29.88
2022-05-18T03:20:00,mfh,29.76
2022-05-18T03:21:00,mfh,29.76
2022-05-18T03:22:00,mfh,29.74
2022-05-18T03:23:00,mfh,30.50
2022-05-18T03:24:00,mfh,30.42
2022-05-18T03:25:00,mfh,30.43
2022-05-18T03:26:00,mfh,30.45
2022-05-18T03:27:00,mfh,29.86
2022-05-18T03:28:00,mfh,30.72
2022-05-18T03:29:00,mfh,29.84
2022-05-18T03:30:00,mfh,29.80
2022-05-18T03:31:00,mfh,30.21
2022-05-18T03:32:00,mfh,30.32
2022-05-18T03:33:00,mfh,30.37
2022-05-18T03:34:00,mfh,30.85
2022-05-18T03:35:00,mfh,29.64
2022-05-18T03:36:00,mfh,29.96
2022-05-18T03:37:00,mfh,29.77
2022-05-18T03:38:00,mfh,29.75
2022-05-18T03:39:00,mfh,29.79
2022-05-18T03:40:00,mfh,31.19
2022-05-18T03:41:00,mfh,31.16
2022-05-18T03:42:00,mfh,31.23
2022-05-18T03:43:00,mfh,31.26
2022-05-18T03:44:00,mfh,29.63
2022-05-18T03:45:00,mfh,29.66
2022-05-18T03:46:00,mfh,30.04
2022-05-18T03:47:00,mfh,29.57
2022-05-18T03:48:00,mfh,30.61
2022-05-18T03:49:00,mfh,30.63
2022-05-18T03:50:00,mfh,30.62
2022-05-18T03:51:00,mfh,30.64
2022-05-18T03:52:00,mfh,29.95
2022-05-18T03:53:00,mfh,29.94
2022-05-18T03:54:00,mfh,29.94
2022-05-18T03:55:00,mfh,29.95
2022-05-18T03:56:00,mfh,30.65
2022-05-18T03:57:00,mfh,30.67
2022-05-18T03:58:00,mfh,30.98
2022-05-18T03:59:00,mfh,30.73
2022-05-18T04:00:00,mfh,30.07
2022-05-18T04:01:00,mfh,29.98
2022-05-18T04:02:00,mfh,29.97
2022-05-18T04:03:00,mfh,30.05
2022-05-18T04:04:00,mfh,30.67
2022-05-18T04:05:00,mfh,30.72
2022-05-18T04:06:00,mfh,30.69
2022-05-18T04:07:00,mfh,30.85
2022-05-18T04:08:00,mfh,30.18
2022-05-18T04:09:00,mfh,30.23
2022-05-18T04:10:00,mfh,30.16
2022-05-18T04:11:00,mfh,30.17
2022-05-18T04:12:00,mfh,30.66
2022-05-18T04:13:00,mfh,30.99
2022-05-18T04:14:00,mfh,30.65
2022-05-18T04:15:00,mfh,30.63
2022-05-18T04:16:00,mfh,30.68
2022-05-18T04:17:00,mfh,30.01
2022-05-18T04:18:00,mfh,30.07
2022-05-18T04:19:00,mfh,30.29
2022-05-18T04:20:00,mfh,30.50
2022-05-18T04:21:00,mfh,31.42
2022-05-18T04:22:00,mfh,31.40
2022-05-18T04:23:00,mfh,31.41
2022-05-18T04:24:00,mfh,31.41
2022-05-18T04:25:00,mfh,30.40
2022-05-18T04:26:00,mfh,29.80
2022-05-18T04:27:00,mfh,29.77
2022-05-18T04:28:00,mfh,29.77
2022-05-18T04:29:00,mfh,30.44
2022-05-18T04:30:00,mfh,30.54
2022-05-18T04:31:00,mfh,30.33
2022-05-18T04:32:00,mfh,30.49
2022-05-18T04:33:00,mfh,29.86
2022-05-18T04:34:00,mfh,30.43
2022-05-18T04:35:00,mfh,30.31
2022-05-18T04:36:00,mfh,30.32
2022-05-18T04:37:00,mfh,38.31
2022-05-18T04:38:00,mfh,38.24
2022-05-18T04:39:00,mfh,38.07
2022-05-18T04:40:00,mfh,38.04
2022-05-18T04:41:00,mfh,37.32
2022-05-18T04:42:00,mfh,38.07
2022-05-18T04:43:00,mfh,37.49
2022-05-18T04:44:00,mfh,45.62
2022-05-18T04:45:00,mfh,47.17
2022-05-18T04:46:00,mfh,47.27
2022-05-18T04:47:00,mfh,47.98
2022-05-18T04:48:00,mfh,48.25
2022-05-18T04:49:00,mfh,48.18
2022-05-18T04:50:00,mfh,47.44
2022-05-18T04:51:00,mfh,47.86
2022-05-18T04:52:00,mfh,47.86
2022-05-18T04:53:00,mfh,47.85
2022-05-18T04:54:00,mfh,48.38
2022-05-18T04:55:00,mfh,48.45
2022-05-18T04:56:00,mfh,48.94
2022-05-18T04:57:00,mfh,48.92
2022-05-18T04:58:00,mfh,48.23
2022-05-18T04:59:00,mfh,48.11
2022-05-18T05:00:00,mfh,47.95
2022-05-18T05:01:00,mfh,68.13
2022-05-18T05:02:00,mfh,68.15
2022-05-18T05:03:00,mfh,68.87
2022-05-18T05:04:00,mfh,68.92
2022-05-18T05:05:00,mfh,69.00
2022-05-18T05:06:00,mfh,68.33
2022-05-18T05:07:00,mfh,67.40
2022-05-18T05:08:00,mfh,67.47
2022-05-18T05:09:00,mfh,67.51
2022-05-18T05:10:00,mfh,68.19
2022-05-18T05:11:00,mfh,68.16
2022-05-18T05:12:00,mfh,68.30
2022-05-18T05:13:00,mfh,68.34
2022-05-18T05:14:00,mfh,67.56
2022-05-18T05:15:00,mfh,67.48
2022-05-18T05:16:00,mfh,66.95
2022-05-18T05:17:00,mfh,66.98
2022-05-18T05:18:00,mfh,68.38
2022-05-18T05:19:00,mfh,68.35
2022-05-18T05:20:00,mfh,68.33
2022-05-18T05:21:00,mfh,68.32
2022-05-18T05:22:00,mfh,68.29
2022-05-18T05:23:00,mfh,67.81
2022-05-18T05:24:00,mfh,67.66
2022-05-18T05:25:00,mfh,67.73
2022-05-18T05:26:00,mfh,67.90
2022-05-18T05:27:00,mfh,67.87
2022-05-18T05:28:00,mfh,67.78
2022-05-18T05:29:00,mfh,67.82
2022-05-18T05:30:00,mfh,67.34
2022-05-18T05:31:00,mfh,66.75
2022-05-18T05:32:00,mfh,66.87
2022-05-18T05:33:00,mfh,67.06
2022-05-18T05:34:00,mfh,67.60
2022-05-18T05:35:00,mfh,67.63
2022-05-18T05:36:00,mfh,67.64
2022-05-18T05:37:00,mfh,68.26
2022-05-18T05:38:00,mfh,67.55
2022-05-18T05:39:00,mfh,67.00
2022-05-18T05:40:00,mfh,66.94
2022-05-18T05:41:00,mfh,67.01
2022-05-18T05:42:00,mfh,67.00
2022-05-18T05:43:00,mfh,67.70
2022-05-18T05:44:00,mfh,67.70
2022-05-18T05:45:00,mfh,67.83
2022-05-18T05:46:00,mfh,68.45
2022-05-18T05:47:00,mfh,67.77
2022-05-18T05:48:00,mfh,67.91
2022-05-18T05:49:00,mfh,68.48
2022-05-18T05:50:00,mfh,66.78
2022-05-18T05:51:00,mfh,67.42
2022-05-18T05:52:00,mfh,67.50
2022-05-18T05:53:00,mfh,67.82
2022-05-18T05:54:00,mfh,67.53
2022-05-18T05:55:00,mfh,66.87
2022-05-18T05:56:00,mfh,66.89
2022-05-18T05:57:00,mfh,66.69
2022-05-18T05:58:00,mfh,67.46
2022-05-18T05:59:00,mfh,68.08
2022-05-18T06:00:00,mfh,68.02
2022-05-18T06:01:00,mfh,67.86
2022-05-18T06:02:00,mfh,67.16
2022-05-18T06:03:00,mfh,66.56
2022-05-18T06:04:00,mfh,66.47
2022-05-18T06:05:00,mfh,66.56
2022-05-18T06:06:00,mfh,66.38
2022-05-18T06:07:00,mfh,67.61
2022-05-18T06:08:00,mfh,68.08
2022-05-18T06:09:00,mfh,67.69
2022-05-18T06:10:00,mfh,67.39
2022-05-18T06:11:00,mfh,67.45
2022-05-18T06:12:00,mfh,66.89
2022-05-18T06:13:00,mfh,66.91
2022-05-18T06:14:00,mfh,67.33
2022-05-18T06:15:00,mfh,67.18
2022-05-18T06:16:00,mfh,67.94
2022-05-18T06:17:00,mfh,67.72
2022-05-18T06:18:00,mfh,68.01
2022-05-18T06:19:00,mfh,68.11
2022-05-18T06:20:00,mfh,67.93
2022-05-18T06:21:00,mfh,67.23
2022-05-18T06:22:00,mfh,67.09
2022-05-18T06:23:00,mfh,67.61
2022-05-18T06:24:00,mfh,67.17
2022-05-18T06:25:00,mfh,67.74
2022-05-18T06:26:00,mfh,68.22
2022-05-18T06:27:00,mfh,68.06
2022-05-18T06:28:00,mfh,68.07
2022-05-18T06:29:00,mfh,68.07
2022-05-18T06:30:00,mfh,68.03
2022-05-18T06:31:00,mfh,68.70
2022-05-18T06:32:00,mfh,68.86
2022-05-18T06:33:00,mfh,68.69
2022-05-18T06:34:00,mfh,68.36
2022-05-18T06:35:00,mfh,68.80
2022-05-18T06:36:00,mfh,68.82
2022-05-18T06:37:00,mfh,67.26
2022-05-18T06:38:00,mfh,66.78
2022-05-18T06:39:00,mfh,67.51
2022-05-18T06:40:00,mfh,66.80
2022-05-18T06:41:00,mfh,67.42
2022-05-18T06:42:00,mfh,67.78
2022-05-18T06:43:00,mfh,67.77
2022-05-18T06:44:00,mfh,67.81
2022-05-18T06:45:00,mfh,67.11
2022-05-18T06:46:00,mfh,67.15
2022-05-18T06:47:00,mfh,67.27
2022-05-18T06:48:00,mfh,67.51
2022-05-18T06:49:00,mfh,68.25
2022-05-18T06:50:00,mfh,67.95
2022-05-18T06:51:00,mfh,67.96
2022-05-18T06:52:00,mfh,68.04
2022-05-18T06:53:00,mfh,68.19
2022-05-18T06:54:00,mfh,67.64
2022-05-18T06:55:00,mfh,67.66
2022-05-18T06:56:00,mfh,67.45
2022-05-18T06:57:00,mfh,67.47
2022-05-18T06:58:00,mfh,68.33
2022-05-18T06:59:00,mfh,68.31
2022-05-18T07:00:00,mfh,67.86
2022-05-18T07:01:00,mfh,67.95
2022-05-18T07:02:00,mfh,67.63
2022-05-18T07:03:00,mfh,67.50
2022-05-18T07:04:00,mfh,67.40
2022-05-18T07:05:00,mfh,67.52
2022-05-18T07:06:00,mfh,67.42
2022-05-18T07:07:00,mfh,67.26
2022-05-18T07:08:00,mfh,67.20
2022-05-18T07:09:00,mfh,67.43
2022-05-18T07:10:00,mfh,66.77
2022-05-18T07:11:00,mfh,66.89
2022-05-18T07:12:00,mfh,67.14
2022-05-18T07:13:00,mfh,67.21
2022-05-18T07:14:00,mfh,68.01
2022-05-18T07:15:00,mfh,67.98
2022-05-18T07:16:00,mfh,67.36
2022-05-18T07:17:00,mfh,67.44
2022-05-18T07:18:00,mfh,66.91
2022-05-18T07:19:00,mfh,66.97
2022-05-18T07:20:00,mfh,67.40
2022-05-18T07:21:00,mfh,66.64
2022-05-18T07:22:00,mfh,66.64
2022-05-18T07:23:00,mfh,66.91
2022-05-18T07:24:00,mfh,66.75
2022-05-18T07:25:00,mfh,66.91
2022-05-18T07:26:00,mfh,66.88
2022-05-18T07:27:00,mfh,66.05
2022-05-18T07:28:00,mfh,66.12
2022-05-18T07:29:00,mfh,66.08
2022-05-18T07:30:00,mfh,65.91
2022-05-18T07:31:00,mfh,67.30
2022-05-18T07:32:00,mfh,67.19
2022-05-18T07:33:00,mfh,67.36
2022-05-18T07:34:00,mfh,67.30
2022-05-18T07:35:00,mfh,66.59
2022-05-18T07:36:00,mfh,66.34
2022-05-18T07:37:00,mfh,66.68
2022-05-18T07:38:00,mfh,66.66
2022-05-18T07:39:00,mfh,67.54
2022-05-18T07:40:00,mfh,67.30
2022-05-18T07:41:00,mfh,67.26
2022-05-18T07:42:00,mfh,67.17
2022-05-18T07:43:00,mfh,66.57
2022-05-18T07:44:00,mfh,66.46
2022-05-18T07:45:00,mfh,66.56
2022-05-18T07:46:00,mfh,66.62
2022-05-18T07:47:00,mfh,67.46
2022-05-18T07:48:00,mfh,67.46
2022-05-18T07:49:00,mfh,67.44
2022-05-18T07:50:00,mfh,67.38
2022-05-18T07:51:00,mfh,67.44
2022-05-18T07:52:00,mfh,66.91
2022-05-18T07:53:00,mfh,66.70
2022-05-18T07:54:00,mfh,67.02
2022-05-18T07:55:00,mfh,68.72
2022-05-18T07:56:00,mfh,68.17
2022-05-18T07:57:00,mfh,68.03
2022-05-18T07:58:00,mfh,68.01
2022-05-18T07:59:00,mfh,67.73
2022-05-18T08:00:00,mfh,66.36
2022-05-18T08:01:00,mfh,86.84
2022-05-18T08:02:00,mfh,87.76
2022-05-18T08:03:00,mfh,87.86
2022-05-18T08:04:00,mfh,87.80
2022-05-18T08:05:00,mfh,87.55
2022-05-18T08:06:00,mfh,87.38
2022-05-18T08:07:00,mfh,87.26
2022-05-18T08:08:00,mfh,86.88
2022-05-18T08:09:00,mfh,86.69
2022-05-18T08:10:00,mfh,86.54
2022-05-18T08:11:00,mfh,86.36
2022-05-18T08:12:00,mfh,86.52
2022-05-18T08:13:00,mfh,86.48
2022-05-18T08:14:00,mfh,86.45
2022-05-18T08:15:00,mfh,86.45
2022-05-18T08:16:00,mfh,86.28
2022-05-18T08:17:00,mfh,86.21
2022-05-18T08:18:00,mfh,86.26
2022-05-18T08:19:00,mfh,83.44
2022-05-18T08:20:00,mfh,83.67
2022-05-18T08:21:00,mfh,83.69
2022-05-18T08:22:00,mfh,83.54
2022-05-18T08:23:00,mfh,74.35
2022-05-18T08:24:00,mfh,78.77
2022-05-18T08:25:00,mfh,78.19
2022-05-18T08:26:00,mfh,77.70
2022-05-18T08:27:00,mfh,77.62
2022-05-18T08:28:00,mfh,77.68
2022-05-18T08:29:00,mfh,78.50
2022-05-18T08:30:00,mfh,78.50
2022-05-18T08:31:00,mfh,78.45
2022-05-18T08:32:00,mfh,78.49
2022-05-18T08:33:00,mfh,78.16
2022-05-18T08:34:00,mfh,78.12
2022-05-18T08:35:00,mfh,78.12
2022-05-18T08:36:00,mfh,78.00
2022-05-18T08:37:00,mfh,78.44
2022-05-18T08:38:00,mfh,84.38
2022-05-18T08:39:00,mfh,84.98
2022-05-18T08:40:00,mfh,84.92
2022-05-18T08:41:00,mfh,84.60
2022-05-18T08:42:00,mfh,84.48
2022-05-18T08:43:00,mfh,84.64
2022-05-18T08:44:00,mfh,85.64
2022-05-18T08:45:00,mfh,84.95
2022-05-18T08:46:00,mfh,84.76
2022-05-18T08:47:00,mfh,84.74
2022-05-18T08:48:00,mfh,85.02
2022-05-18T08:49:00,mfh,85.05
2022-05-18T08:50:00,mfh,85.05
2022-05-18T08:51:00,mfh,84.74
2022-05-18T08:52:00,mfh,84.69
2022-05-18T08:53:00,mfh,84.98
2022-05-18T08:54:00,mfh,85.02
2022-05-18T08:55:00,mfh,84.73
2022-05-18T08:56:00,mfh,84.76
2022-05-18T08:57:00,mfh,84.64
2022-05-18T08:58:00,mfh,84.10
2022-05-18T08:59:00,mfh,84.06
2022-05-18T09:00:00,mfh,84.23
2022-05-18T09:01:00,mfh,84.36
2022-05-18T09:02:00,mfh,84.69
2022-05-18T09:03:00,mfh,84.58
2022-05-18T09:04:00,mfh,84.58
2022-05-18T09:05:00,mfh,79.89
2022-05-18T09:06:00,mfh,79.17
2022-05-18T09:07:00,mfh,79.10
2022-05-18T09:08:00,mfh,78.82
2022-05-18T09:09:00,mfh,78.96
2022-05-18T09:10:00,mfh,79.49
2022-05-18T09:11:00,mfh,79.64
2022-05-18T09:12:00,mfh,79.54
2022-05-18T09:13:00,mfh,79.56
2022-05-18T09:14:00,mfh,79.73
2022-05-18T09:15:00,mfh,79.14
2022-05-18T09:16:00,mfh,79.33
2022-05-18T09:17:00,mfh,79.36
2022-05-18T09:18:00,mfh,79.97
2022-05-18T09:19:00,mfh,79.86
2022-05-18T09:20:00,mfh,79.84
2022-05-18T09:21:00,mfh,80.20
2022-05-18T09:22:00,mfh,74.31
2022-05-18T09:23:00,mfh,80.42
2022-05-18T09:24:00,mfh,80.64
2022-05-18T09:25:00,mfh,77.51
2022-05-18T09:26:00,mfh,77.38
2022-05-18T09:27:00,mfh,77.09
2022-05-18T09:28:00,mfh,77.35
2022-05-18T09:29:00,mfh,77.55
2022-05-18T09:30:00,mfh,77.59
2022-05-18T09:31:00,mfh,76.98
2022-05-18T09:32:00,mfh,76.78
2022-05-18T09:33:00,mfh,70.27
2022-05-18T09:34:00,mfh,70.55
2022-05-18T09:35:00,mfh,71.53
2022-05-18T09:36:00,mfh,77.90
2022-05-18T09:37:00,mfh,78.27
2022-05-18T09:38:00,mfh,78.36
2022-05-18T09:39:00,mfh,78.19
2022-05-18T09:40:00,mfh,77.65
2022-05-18T09:41:00,mfh,77.60
2022-05-18T09:42:00,mfh,77.24
2022-05-18T09:43:00,mfh,77.20
2022-05-18T09:44:00,mfh,77.83
2022-05-18T09:45:00,mfh,77.42
2022-05-18T09:46:00,mfh,77.59
2022-05-18T09:47:00,mfh,77.79
2022-05-18T09:48:00,mfh,76.59
2022-05-18T09:49:00,mfh,76.57
2022-05-18T09:50:00,mfh,76.61
2022-05-18T09:51:00,mfh,76.54
2022-05-18T09:52:00,mfh,76.96
2022-05-18T09:53:00,mfh,76.85
2022-05-18T09:54:00,mfh,77.26
2022-05-18T09:55:00,mfh,77.06
2022-05-18T09:56:00,mfh,76.60
2022-05-18T09:57:00,mfh,77.28
2022-05-18T09:58:00,mfh,76.21
2022-05-18T09:59:00,mfh,76.27
2022-05-18T10:00:00,mfh,86.35
2022-05-18T10:01:00,mfh,86.69
2022-05-18T10:02:00,mfh,86.87
2022-05-18T10:03:00,mfh,86.37
2022-05-18T10:04:00,mfh,86.15
2022-05-18T10:05:00,mfh,86.12
2022-05-18T10:06:00,mfh,85.84
2022-05-18T10:07:00,mfh,85.76
2022-05-18T10:08:00,mfh,85.92
2022-05-18T10:09:00,mfh,85.89
2022-05-18T10:10:00,mfh,85.75
2022-05-18T10:11:00,mfh,85.20
2022-05-18T10:12:00,mfh,84.84
2022-05-18T10:13:00,mfh,84.88
2022-05-18T10:14:00,mfh,85.01
2022-05-18T10:15:00,mfh,84.51
2022-05-18T10:16:00,mfh,79.19
2022-05-18T10:17:00,mfh,79.67
2022-05-18T10:18:00,mfh,80.22
2022-05-18T10:19:00,mfh,79.92
2022-05-18T10:20:00,mfh,76.60
2022-05-18T10:21:00,mfh,76.01
2022-05-18T10:22:00,mfh,75.86
2022-05-18T10:23:00,mfh,76.10
2022-05-18T10:24:00,mfh,75.19
2022-05-18T10:25:00,mfh,73.55
2022-05-18T10:26:00,mfh,72.96
2022-05-18T10:27:00,mfh,73.03
2022-05-18T10:28:00,mfh,72.98
2022-05-18T10:29:00,mfh,65.68
2022-05-18T10:30:00,mfh,65.94
2022-05-18T10:31:00,mfh,66.13
2022-05-18T10:32:00,mfh,66.54
2022-05-18T10:33:00,mfh,67.06
2022-05-18T10:34:00,mfh,66.39
2022-05-18T10:35:00,mfh,66.27
2022-05-18T10:36:00,mfh,65.93
2022-05-18T10:37:00,mfh,65.41
2022-05-18T10:38:00,mfh,65.38
2022-05-18T10:39:00,mfh,65.38
2022-05-18T10:40:00,mfh,65.92
2022-05-18T10:41:00,mfh,65.91
2022-05-18T10:42:00,mfh,65.73
2022-05-18T10:43:00,mfh,65.61
2022-05-18T10:44:00,mfh,65.67
2022-05-18T10:45:00,mfh,65.16
2022-05-18T10:46:00,mfh,65.24
2022-05-18T10:47:00,mfh,65.29
2022-05-18T10:48:00,mfh,65.32
2022-05-18T10:49:00,mfh,65.38
2022-05-18T10:50:00,mfh,66.05
2022-05-18T10:51:00,mfh,68.47
2022-05-18T10:52:00,mfh,68.63
2022-05-18T10:53:00,mfh,68.08
2022-05-18T10:54:00,mfh,67.38
2022-05-18T10:55:00,mfh,64.89
2022-05-18T10:56:00,mfh,65.26
2022-05-18T10:57:00,mfh,66.17
2022-05-18T10:58:00,mfh,66.06
2022-05-18T10:59:00,mfh,66.40
2022-05-18T11:00:00,mfh,66.34
2022-05-18T11:01:00,mfh,66.25
2022-05-18T11:02:00,mfh,65.72
2022-05-18T11:03:00,mfh,65.87
2022-05-18T11:04:00,mfh,65.87
2022-05-18T11:05:00,mfh,66.33
2022-05-18T11:06:00,mfh,66.40
2022-05-18T11:07:00,mfh,66.54
2022-05-18T11:08:00,mfh,66.29
2022-05-18T11:09:00,mfh,65.92
2022-05-18T11:10:00,mfh,65.38
2022-05-18T11:11:00,mfh,65.30
2022-05-18T11:12:00,mfh,65.31
2022-05-18T11:13:00,mfh,65.64
2022-05-18T11:14:00,mfh,66.66
2022-05-18T11:15:00,mfh,67.16
2022-05-18T11:16:00,mfh,67.09
2022-05-18T11:17:00,mfh,83.03
2022-05-18T11:18:00,mfh,83.24
2022-05-18T11:19:00,mfh,82.70
2022-05-18T11:20:00,mfh,82.44
2022-05-18T11:21:00,mfh,82.08
2022-05-18T11:22:00,mfh,81.61
2022-05-18T11:23:00,mfh,81.86
2022-05-18T11:24:00,mfh,81.54
2022-05-18T11:25:00,mfh,81.28
2022-05-18T11:26:00,mfh,81.12
2022-05-18T11:27:00,mfh,80.57
2022-05-18T11:28:00,mfh,80.48
2022-05-18T11:29:00,mfh,80.33
2022-05-18T11:30:00,mfh,80.19
2022-05-18T11:31:00,mfh,80.58
2022-05-18T11:32:00,mfh,80.46
2022-05-18T11:33:00,mfh,80.37
2022-05-18T11:34:00,mfh,70.77
2022-05-18T11:35:00,mfh,64.81
2022-05-18T11:36:00,mfh,64.75
2022-05-18T11:37:00,mfh,64.68
2022-05-18T11:38:00,mfh,65.14
2022-05-18T11:39:00,mfh,64.97
2022-05-18T11:40:00,mfh,65.05
2022-05-18T11:41:00,mfh,65.61
2022-05-18T11:42:00,mfh,65.49
2022-05-18T11:43:00,mfh,64.93
2022-05-18T11:44:00,mfh,64.97
2022-05-18T11:45:00,mfh,65.08
2022-05-18T11:46:00,mfh,65.22
2022-05-18T11:47:00,mfh,65.06
2022-05-18T11:48:00,mfh,65.83
2022-05-18T11:49:00,mfh,65.84
2022-05-18T11:50:00,mfh,65.83
2022-05-18T11:51:00,mfh,66.22
2022-05-18T11:52:00,mfh,65.58
2022-05-18T11:53:00,mfh,65.95
2022-05-18T11:54:00,mfh,66.06
2022-05-18T11:55:00,mfh,65.58
2022-05-18T11:56:00,mfh,66.18
2022-05-18T11:57:00,mfh,66.08
2022-05-18T11:58:00,mfh,66.22
2022-05-18T11:59:00,mfh,66.28
2022-05-18T12:00:00,mfh,65.65
2022-05-18T12:01:00,mfh,65.65
2022-05-18T12:02:00,mfh,65.89
2022-05-18T12:03:00,mfh,66.23
2022-05-18T12:04:00,mfh,68.68
2022-05-18T12:05:00,mfh,66.90
2022-05-18T12:06:00,mfh,66.95
2022-05-18T12:07:00,mfh,66.44
2022-05-18T12:08:00,mfh,65.92
2022-05-18T12:09:00,mfh,69.97
2022-05-18T12:10:00,mfh,71.09
2022-05-18T12:11:00,mfh,70.76
2022-05-18T12:12:00,mfh,71.17
2022-05-18T12:13:00,mfh,71.20
2022-05-18T12:14:00,mfh,71.23
2022-05-18T12:15:00,mfh,71.19
2022-05-18T12:16:00,mfh,70.46
2022-05-18T12:17:00,mfh,70.28
2022-05-18T12:18:00,mfh,70.54
2022-05-18T12:19:00,mfh,70.45
2022-05-18T12:20:00,mfh,71.78
2022-05-18T12:21:00,mfh,71.89
2022-05-18T12:22:00,mfh,71.31
2022-05-18T12:23:00,mfh,70.94
2022-05-18T12:24:00,mfh,71.26
2022-05-18T12:25:00,mfh,71.09
2022-05-18T12:26:00,mfh,70.91
2022-05-18T12:27:00,mfh,70.94
2022-05-18T12:28:00,mfh,70.66
2022-05-18T12:29:00,mfh,71.25
2022-05-18T12:30:00,mfh,71.75
2022-05-18T12:31:00,mfh,71.41
2022-05-18T12:32:00,mfh,70.85
2022-05-18T12:33:00,mfh,70.15
2022-05-18T12:34:00,mfh,69.87
2022-05-18T12:35:00,mfh,69.89
2022-05-18T12:36:00,mfh,69.82
2022-05-18T12:37:00,mfh,70.96
2022-05-18T12:38:00,mfh,70.39
2022-05-18T12:39:00,mfh,70.76
2022-05-18T12:40:00,mfh,69.89
2022-05-18T12:41:00,mfh,68.41
2022-05-18T12:42:00,mfh,68.33
2022-05-18T12:43:00,mfh,68.47
2022-05-18T12:44:00,mfh,68.47
2022-05-18T12:45:00,mfh,68.49
2022-05-18T12:46:00,mfh,69.19
2022-05-18T12:47:00,mfh,69.06
2022-05-18T12:48:00,mfh,69.01
2022-05-18T12:49:00,mfh,68.92
2022-05-18T12:50:00,mfh,68.11
2022-05-18T12:51:00,mfh,68.08
2022-05-18T12:52:00,mfh,68.47
2022-05-18T12:53:00,mfh,68.08
2022-05-18T12:54:00,mfh,69.58
2022-05-18T12:55:00,mfh,70.99
2022-05-18T12:56:00,mfh,69.20
2022-05-18T12:57:00,mfh,69.35
2022-05-18T12:58:00,mfh,68.57
2022-05-18T12:59:00,mfh,68.61
2022-05-18T13:00:00,mfh,68.87
2022-05-18T13:01:00,mfh,70.88
2022-05-18T13:02:00,mfh,71.84
2022-05-18T13:03:00,mfh,71.62
2022-05-18T13:04:00,mfh,71.16
2022-05-18T13:05:00,mfh,70.45
2022-05-18T13:06:00,mfh,69.64
2022-05-18T13:07:00,mfh,70.55
2022-05-18T13:08:00,mfh,70.11
2022-05-18T13:09:00,mfh,69.92
2022-05-18T13:10:00,mfh,70.08
2022-05-18T13:11:00,mfh,70.90
2022-05-18T13:12:00,mfh,70.16
2022-05-18T13:13:00,mfh,70.29
2022-05-18T13:14:00,mfh,69.44
2022-05-18T13:15:00,mfh,69.48
2022-05-18T13:16:00,mfh,71.25
2022-05-18T13:17:00,mfh,70.96
2022-05-18T13:18:00,mfh,70.82